Weather History for Pecos, TX

Change the Weather History Date:

Thursday, February 20, 2014

  Actual Average Record
Temperature  
Mean Temperature 54 °F -  
Max Temperature 70 °F 68 °F 91 °F (1986)
Min Temperature 37 °F 35 °F 14 °F (1953)
Degree Days  
Heating Degree Days 12    
Growing Degree Days 4 (Base 50)    
Moisture  
Dew Point 15 °F    
Average Humidity 18    
Maximum Humidity 28    
Minimum Humidity 12    
Precipitation  
Precipitation 0.00 in - - ()
Sea Level Pressure  
Sea Level Pressure 29.93 in    
Wind  
Wind Speed 8 mph (NW)    
Max Wind Speed 17 mph    
Max Gust Speed 23 mph    
Visibility 10 miles    
Events      
Averages and records for this station are not official NWS values.
T = Trace of Precipitation, MM = Missing Value Source: NWS Daily Summary

Daily Weather History Graph

Daily Weather History Graph

Search for Another Location

Airport:

Trip Planner

Search our weather history database for the weather conditions in past years. The results will help you decide how hot, cold, wet, or windy it might be!

Date:

Astronomy

Feb. 20, 2014 Rise Set
Actual Time 7:30 AM CST 6:45 PM CST
Civil Twilight 7:05 AM CST 7:09 PM CST
Nautical Twilight 6:37 AM CST 7:38 PM CST
Astronomical Twilight 6:09 AM CST 8:06 PM CST
Moon No Moon Rise 10:37 AM CST (2/20)
Length of Visible Light 12h 04m
Length of Day
11h 14m
Waning Gibbous, 70% of the Moon is Illuminated
Feb 20
Waning Gibbous
Feb 22
Last Quarter
Mar 1
New
Mar 8
First Quarter
Mar 16
Full

Hourly Weather History & Observations

Time (CST) Temp. Windchill Dew Point Humidity Pressure Visibility Wind Dir Wind Speed Gust Speed Precip Events Conditions
12:15 AM 57.2 °F - 18.0 °F 22% 29.70 in 10.0 mi SSW 9.2 mph - N/A   Clear
12:35 AM 56.8 °F - 17.6 °F 22% 29.70 in 10.0 mi SSW 9.2 mph - N/A   Clear
12:55 AM 57.2 °F - 18.1 °F 22% 29.71 in 10.0 mi SSW 6.9 mph - N/A   Clear
1:15 AM 57.7 °F - 17.8 °F 21% 29.71 in 10.0 mi SSW 8.1 mph - N/A   Clear
1:35 AM 58.8 °F - 17.8 °F 20% 29.71 in 10.0 mi SSW 8.1 mph - N/A   Clear
1:55 AM 59.7 °F - 17.6 °F 19% 29.71 in 10.0 mi SSW 8.1 mph - N/A   Clear
2:15 AM 61.0 °F - 17.4 °F 18% 29.72 in 10.0 mi SSW 4.6 mph - N/A   Clear
2:35 AM 61.5 °F - 17.2 °F 18% 29.73 in 10.0 mi Calm Calm - N/A   Clear
2:55 AM 61.9 °F - 17.2 °F 18% 29.73 in 10.0 mi Calm Calm - N/A   Clear
3:15 AM 60.3 °F - 17.1 °F 19% 29.73 in 10.0 mi WSW 4.6 mph - N/A   Clear
3:35 AM 58.3 °F - 18.0 °F 21% 29.74 in 10.0 mi West 11.5 mph - N/A   Clear
3:54 AM 62.6 °F - 17.6 °F 18% 29.75 in 10.0 mi West 11.5 mph - N/A   Clear
3:55 AM 61.9 °F - 17.6 °F 18% 29.75 in 10.0 mi West 11.5 mph - N/A   Clear
4:15 AM 63.1 °F - 18.3 °F 18% 29.76 in 10.0 mi West 11.5 mph - N/A   Clear
4:35 AM 60.8 °F - 18.9 °F 20% 29.77 in 10.0 mi West 11.5 mph - N/A   Clear
4:55 AM 63.7 °F - 18.0 °F 17% 29.77 in 10.0 mi West 11.5 mph - N/A   Clear
5:15 AM 62.1 °F - 17.2 °F 18% 29.79 in 10.0 mi West 11.5 mph - N/A   Clear
5:35 AM 59.0 °F - 16.7 °F 19% 29.79 in 10.0 mi West 6.9 mph - N/A   Clear
5:55 AM 58.6 °F - 16.3 °F 19% 29.81 in 10.0 mi West 6.9 mph - N/A   Clear
6:15 AM 56.5 °F - 17.1 °F 21% 29.82 in 10.0 mi WSW 9.2 mph - N/A   Clear
6:35 AM 58.6 °F - 17.1 °F 20% 29.83 in 10.0 mi WSW 6.9 mph - N/A   Clear
6:55 AM 57.4 °F - 16.9 °F 21% 29.85 in 10.0 mi WSW 3.5 mph - N/A   Clear
7:15 AM 56.3 °F - 16.3 °F 21% 29.86 in 10.0 mi West 8.1 mph - N/A   Clear
7:35 AM 50.9 °F - 16.3 °F 25% 29.88 in 10.0 mi NE 4.6 mph - N/A   Clear
7:55 AM 52.7 °F - 15.8 °F 23% 29.89 in 10.0 mi Calm Calm - N/A   Clear
8:15 AM 52.3 °F - 16.7 °F 24% 29.90 in 10.0 mi WSW 5.8 mph - N/A   Clear
8:35 AM 59.4 °F - 16.7 °F 19% 29.92 in 10.0 mi West 9.2 mph - N/A   Clear
8:55 AM 63.1 °F - 17.4 °F 17% 29.93 in 10.0 mi West 9.2 mph - N/A   Clear
9:15 AM 65.5 °F - 18.7 °F 17% 29.93 in 10.0 mi NNW 8.1 mph - N/A   Clear
9:35 AM 65.8 °F - 18.1 °F 16% 29.95 in 10.0 mi North 17.3 mph 23.0 mph N/A   Clear
9:55 AM 64.9 °F - 18.1 °F 17% 29.97 in 10.0 mi North 11.5 mph - N/A   Clear
10:15 AM 65.5 °F - 19.6 °F 17% 29.98 in 10.0 mi North 11.5 mph - N/A   Clear
10:35 AM 66.2 °F - 19.2 °F 17% 29.98 in 10.0 mi North 10.4 mph - N/A   Clear
10:55 AM 66.7 °F - 19.8 °F 17% 29.99 in 10.0 mi NNW 13.8 mph 19.6 mph N/A   Clear
12:15 PM 70.0 °F - 19.6 °F 15% 30.02 in 10.0 mi North 9.2 mph 20.7 mph N/A   Clear
12:35 PM 70.2 °F - 19.9 °F 15% 30.02 in 10.0 mi North 10.4 mph - N/A   Clear
1:15 PM 70.3 °F - 19.8 °F 15% 30.01 in 10.0 mi North 10.4 mph 17.3 mph N/A   Clear
1:35 PM 70.2 °F - 19.6 °F 15% 30.00 in 10.0 mi NNE 12.7 mph 19.6 mph N/A   Clear
1:42 PM 69.8 °F - 19.4 °F 15% 30.00 in 10.0 mi NNE 12.7 mph 19.6 mph N/A   Clear
2:15 PM 70.7 °F - 19.2 °F 14% 30.00 in 10.0 mi North 11.5 mph 17.3 mph N/A   Clear
2:35 PM 70.3 °F - 18.5 °F 14% 30.00 in 10.0 mi North 11.5 mph 16.1 mph N/A   Clear
5:15 PM 68.9 °F - 14.5 °F 12% 30.02 in 10.0 mi NNW 9.2 mph 17.3 mph N/A   Clear
5:35 PM 68.4 °F - 13.8 °F 12% 30.02 in 10.0 mi North 10.4 mph - N/A   Clear
5:55 PM 67.3 °F - 12.7 °F 12% 30.03 in 7.0 mi North 9.2 mph - N/A   Clear
6:15 PM 65.8 °F - 11.3 °F 12% 30.03 in 10.0 mi North 9.2 mph - N/A   Clear
6:35 PM 64.4 °F - 10.0 °F 12% 30.03 in 10.0 mi North 8.1 mph - N/A   Clear
6:55 PM 62.4 °F - 9.3 °F 12% 30.04 in 10.0 mi North 6.9 mph - N/A   Clear
7:15 PM 59.7 °F - 8.6 °F 13% 30.05 in 10.0 mi North 4.6 mph - N/A   Clear
7:35 PM 59.5 °F - 8.6 °F 13% 30.06 in 10.0 mi North 4.6 mph - N/A   Clear
7:55 PM 57.9 °F - 8.1 °F 14% 30.07 in 10.0 mi NNW 5.8 mph - N/A   Clear
8:15 PM 54.1 °F - 7.0 °F 15% 30.07 in 10.0 mi ENE 5.8 mph - N/A   Clear
8:35 PM 52.2 °F - 7.0 °F 16% 30.09 in 10.0 mi NE 3.5 mph - N/A   Clear
8:55 PM 49.3 °F - 6.4 °F 18% 30.10 in 10.0 mi East 3.5 mph - N/A   Clear
9:15 PM 48.7 °F - 5.9 °F 17% 30.10 in 10.0 mi East 3.5 mph - N/A   Clear
9:35 PM 48.4 °F - 5.9 °F 18% 30.11 in 10.0 mi East 3.5 mph - N/A   Clear
9:55 PM 47.3 °F - 5.9 °F 18% 30.12 in 10.0 mi Calm Calm - N/A   Clear
10:15 PM 47.5 °F - 5.9 °F 18% 30.12 in 10.0 mi Calm Calm - N/A   Clear
10:35 PM 43.3 °F - 5.9 °F 21% 30.13 in 10.0 mi Calm Calm - N/A   Clear
10:55 PM 40.1 °F 36.9 °F 7.0 °F 25% 30.13 in 10.0 mi SW 4.6 mph - N/A   Clear
11:15 PM 39.9 °F 36.7 °F 6.8 °F 25% 30.13 in 10.0 mi SW 4.6 mph - N/A   Clear
11:35 PM 37.8 °F 34.2 °F 6.3 °F 27% 30.13 in 10.0 mi WSW 4.6 mph - N/A   Clear
11:55 PM 37.6 °F 35.1 °F 6.8 °F 28% 30.13 in 10.0 mi WNW 3.5 mph - N/A   Clear